This demonstration page uses our WeatherBlox Daily Observations layout. Learn more.

Left ArrowRight Arrow

Hourly Observations for May 2, 2018

Temp ( °F °C ) Dew Point ( °F °C ) Humidity (%) Winds ( mph kmh ) Pressure ( in mb ) Visibility ( mi km ) Precip ( " mm )
12:15 am 00:15 Clear 61 16 41 5 48 48 Calm 30.15 1021 10 16 0.00 0.00
12:35 am 00:35 Clear 55 13 43 6 63 63 Calm 30.15 1021 10 16 0.00 0.00
12:55 am 00:55 Clear 54 12 46 8 77 77 Calm 30.15 1021 10 16 0.00 0.00
1:15 am 01:15 Clear 55 13 45 7 67 67 Calm 30.15 1021 10 16 0.00 0.00
1:35 am 01:35 Clear 59 15 43 6 55 55 S 5 7 30.15 1021 10 16 0.00 0.00
1:55 am 01:55 Clear 57 14 41 5 55 55 S 5 7 30.12 1020 10 16 0.00 0.00
2:15 am 02:15 Clear 52 11 43 6 72 72 Calm 30.12 1020 10 16 0.00 0.00
2:35 am 02:35 Clear 52 11 45 7 77 77 Calm 30.12 1020 10 16 0.00 0.00
2:55 am 02:55 Clear 55 13 43 6 63 63 SSW 3 6 30.12 1020 10 16 0.00 0.00
3:15 am 03:15 Clear 54 12 43 6 67 67 SW 3 6 30.12 1020 10 16 0.00 0.00
3:35 am 03:35 Clear 52 11 43 6 72 72 SW 5 7 30.12 1020 10 16 0.00 0.00
3:55 am 03:55 Clear 54 12 43 6 67 67 SW 3 6 30.15 1021 10 16 0.00 0.00
4:15 am 04:15 Clear 55 13 41 5 59 59 W 3 6 30.15 1021 10 16 0.00 0.00
4:35 am 04:35 Clear 54 12 41 5 63 63 Calm 30.15 1021 10 16 0.00 0.00
4:55 am 04:55 Clear 54 12 43 6 67 67 Calm 30.15 1021 10 16 0.00 0.00
5:15 am 05:15 Clear 52 11 43 6 72 72 W 3 6 30.15 1021 10 16 0.00 0.00
5:35 am 05:35 Clear 52 11 45 7 77 77 Calm 30.15 1021 10 16 0.00 0.00
5:55 am 05:55 Clear 52 11 43 6 72 72 Calm 30.15 1021 10 16 0.00 0.00
6:15 am 06:15 Sunny 52 11 43 6 72 72 Calm 30.15 1021 10 16 0.00 0.00
6:35 am 06:35 Sunny 52 11 43 6 72 72 Calm 30.21 1023 10 16 0.00 0.00
6:55 am 06:55 Sunny 50 10 45 7 82 82 Calm 30.21 1023 10 16 0.00 0.00
7:15 am 07:15 Sunny 52 11 46 8 82 82 Calm 30.21 1023 10 16 0.00 0.00
7:35 am 07:35 Sunny 55 13 48 9 77 77 Calm 30.18 1022 10 16 0.00 0.00
7:55 am 07:55 Sunny 59 15 48 9 68 68 Calm 30.21 1023 10 16 0.00 0.00
8:15 am 08:15 Sunny 64 18 46 8 52 52 Calm 30.21 1023 10 16 0.00 0.00
8:35 am 08:35 Sunny 66 19 46 8 49 49 Calm 30.21 1023 10 16 0.00 0.00
8:55 am 08:55 Sunny 70 21 50 10 50 50 Calm 30.21 1023 10 16 0.00 0.00
9:15 am 09:15 Sunny 72 22 52 11 50 50 Calm 30.21 1023 10 16 0.00 0.00
9:35 am 09:35 Sunny 73 23 48 9 41 41 Calm 30.21 1023 10 16 0.00 0.00
9:55 am 09:55 Sunny 75 24 50 10 41 41 Calm 30.21 1023 10 16 0.00 0.00
10:15 am 10:15 Sunny 79 26 50 10 37 37 WNW 3 6 30.21 1023 10 16 0.00 0.00
10:35 am 10:35 Sunny 82 28 50 10 32 32 WNW 6 9 30.18 1022 10 16 0.00 0.00
10:55 am 10:55 Sunny 82 28 46 8 28 28 WNW 8 13 30.18 1022 10 16 0.00 0.00
11:15 am 11:15 Sunny 82 28 46 8 28 28 NW 7 11 30.18 1022 10 16 0.00 0.00
11:35 am 11:35 Sunny 84 29 50 10 31 31 NW 14 22 30.18 1022 10 16 0.00 0.00
11:55 am 11:55 Sunny 84 29 48 9 29 29 NW 9 15 30.18 1022 10 16 0.00 0.00
12:15 pm 12:15 Sunny 86 30 50 10 29 29 WNW 13 20 30.18 1022 10 16 0.00 0.00
12:35 pm 12:35 Sunny 86 30 50 10 29 29 W 3 6 30.15 1021 10 16 0.00 0.00
12:55 pm 12:55 Sunny 86 30 50 10 29 29 W 10 17 30.15 1021 10 16 0.00 0.00
1:15 pm 13:15 Sunny 86 30 46 8 25 25 W 8 13 30.15 1021 10 16 0.00 0.00
1:35 pm 13:35 Sunny 88 31 50 10 27 27 W 7 11 30.15 1021 10 16 0.00 0.00
1:55 pm 13:55 Sunny 88 31 46 8 24 24 WSW 12 19 30.15 1021 10 16 0.00 0.00
2:15 pm 14:15 Sunny 90 32 48 9 24 24 WSW 3 6 30.09 1019 10 16 0.00 0.00
2:35 pm 14:35 Sunny 90 32 46 8 22 22 W 16 26 30.09 1019 10 16 0.00 0.00
2:55 pm 14:55 Sunny 90 32 45 7 21 21 WSW 14 22 30.09 1019 10 16 0.00 0.00
3:15 pm 15:15 Sunny 90 32 43 6 20 20 W 10 17 30.06 1018 10 16 0.00 0.00
3:35 pm 15:35 Sunny 90 32 43 6 20 20 SSW 12 19 30.06 1018 10 16 0.00 0.00
3:55 pm 15:55 Sunny 90 32 45 7 21 21 SSW 9 15 30.06 1018 10 16 0.00 0.00
4:15 pm 16:15 Sunny 91 33 45 7 20 20 SSW 12 19 30.03 1017 10 16 0.00 0.00
4:35 pm 16:35 Sunny 91 33 46 8 21 21 SSW 8 13 30.03 1017 10 16 0.00 0.00
4:55 pm 16:55 Sunny 91 33 46 8 21 21 SW 10 17 30.03 1017 10 16 0.00 0.00
5:15 pm 17:15 Sunny 91 33 45 7 20 20 S 7 11 30.03 1017 10 16 0.00 0.00
5:35 pm 17:35 Sunny 90 32 46 8 22 22 SSW 8 13 30.03 1017 10 16 0.00 0.00
5:55 pm 17:55 Sunny 90 32 45 7 21 21 SSW 10 17 30.03 1017 10 16 0.00 0.00
6:15 pm 18:15 Sunny 90 32 46 8 22 22 SSW 6 9 30.03 1017 10 16 0.00 0.00
6:35 pm 18:35 Sunny 88 31 46 8 24 24 SW 5 7 30.03 1017 10 16 0.00 0.00
6:55 pm 18:55 Sunny 86 30 48 9 27 27 SSW 5 7 30.06 1018 10 16 0.00 0.00
7:15 pm 19:15 Sunny 86 30 48 9 27 27 SSW 3 6 30.06 1018 10 16 0.00 0.00
7:35 pm 19:35 Sunny 86 30 48 9 27 27 SSW 5 7 30.06 1018 10 16 0.00 0.00
7:55 pm 19:55 Sunny 84 29 48 9 29 29 SSW 5 7 30.06 1018 10 16 0.00 0.00
8:15 pm 20:15 Clear 82 28 48 9 30 30 SSW 5 7 30.06 1018 10 16 0.00 0.00
8:35 pm 20:35 Clear 81 27 48 9 32 32 SSW 5 7 30.06 1018 10 16 0.00 0.00
8:55 pm 20:55 Clear 79 26 50 10 37 37 S 6 9 30.06 1018 10 16 0.00 0.00
9:15 pm 21:15 Clear 79 26 50 10 37 37 S 6 9 30.06 1018 10 16 0.00 0.00
9:35 pm 21:35 Clear 75 24 50 10 41 41 SW 6 9 30.06 1018 10 16 0.00 0.00
9:55 pm 21:55 Clear 77 25 50 10 39 39 SW 6 9 30.06 1018 10 16 0.00 0.00
10:15 pm 22:15 Clear 77 25 48 9 36 36 SW 6 9 30.06 1018 10 16 0.00 0.00
10:35 pm 22:35 Clear 77 25 50 10 39 39 SSW 5 7 30.06 1018 10 16 0.00 0.00
10:55 pm 22:55 Clear 75 24 50 10 41 41 S 5 7 30.06 1018 10 16 0.00 0.00
11:15 pm 23:15 Clear 73 23 50 10 44 44 S 6 9 30.06 1018 10 16 0.00 0.00
11:35 pm 23:35 Clear 73 23 50 10 44 44 S 7 11 30.06 1018 10 16 0.00 0.00
11:55 pm 23:55 Clear 72 22 50 10 47 47 SW 6 9 30.06 1018 10 16 0.00 0.00

Powered by AerisWeather